Regional Weather Roundup
Issued by NWS

Home | Current Version | Previous Version | Text Only | Print | Product List | Glossary Off
Versions: 1 2 3 4 5 6 7 8 9 10 11 12 13 14 15 16 17 18 19 20 21 22 23 24 25 26 27 28 29 30 31 32 33 34 35 36 37 38 39 40 41 42 43 44 45 46 47 48 49 50

000
ASUS43 KIND 291859
RWRIN

WEATHER ROUNDUP FOR INDIANA
NATIONAL WEATHER SERVICE INDIANAPOLIS IN
300 PM EDT MON JUN 29 2015

NOTE: "FAIR" INDICATES FEW OR NO CLOUDS BELOW 12,000 FEET WITH NO
SIGNIFICANT WEATHER AND/OR OBSTRUCTIONS TO VISIBILITY.

* - STATION DOES NOT REPORT WEATHER SUCH AS PRECIPITATION OR FOG.

+ - STATION NOT QUALITY CONTROLLED BY THE NATIONAL WEATHER SERVICE.
    USE DATA WITH CAUTION...ESPECIALLY DEWPOINT AND RELATIVE
    HUMIDITY OBSERVATIONS.

INZ001>003-010>013-019-020-292000-
NORTHWEST INDIANA

CITY           SKY/WX    TMP DP  RH WIND       PRES   REMARKS
RENSSELAER +   CLOUDY    70  66  88 N5        29.82S

$$

LMZ046-743>745-292000-
SOUTHERN LAKE MICHIGAN

STATION/POSITION TIME  TEMP    WIND        PRES    WAVE
                       AIR SEA DIR/SP/G            HT
                 (UTC) (F)     (DEG/KT/KT) (MB)    (FT)
BURNS HARBOR     1800   69     150/  2/  6 1010.5S
MICHIGAN CITY    1800   67     120/  4/  5   N/A
5NW MICH CITY    1800   68 65   CALM  /  2   N/A     0

$$

INZ004-005-014>016-021>024-292000-
NORTH CENTRAL INDIANA

CITY           SKY/WX    TMP DP  RH WIND       PRES   REMARKS
ELKHART        LGT RAIN  64  63  94 SE6       29.85S
GOSHEN         LGT RAIN  65  61  87 SE7       29.84F
SOUTH BEND     LGT RAIN  69  64  84 SE9       29.84S

$$

INZ006>009-017-018-025>027-292000-
NORTHEAST INDIANA

CITY           SKY/WX    TMP DP  RH WIND       PRES   REMARKS
ANGOLA *+      CLOUDY    66  55  68 SE13      29.87R
FORT WAYNE     CLOUDY    64  59  83 E9        29.85S

$$

INZ028-029-035-036-043>045-051>053-292000-
WEST CENTRAL INDIANA

CITY           SKY/WX    TMP DP  RH WIND       PRES   REMARKS
CRAWFORDSVL +  CLOUDY    70  63  77 CALM      29.81F
GREENCASTLE +  CLOUDY    70  63  78 N3        29.82S
LAFAYETTE      LGT RAIN  71  63  75 CALM      29.80S
TERRE HAUTE    PTSUNNY   75  65  70 W8        29.81S

$$

INZ030>032-037>040-046>048-054>057-064-065-292000-
CENTRAL INDIANA

CITY           SKY/WX    TMP DP  RH WIND       PRES   REMARKS
ANDERSON       CLOUDY    70  57  64 CALM      29.83S
COLUMBUS       PTSUNNY   73  68  83 NW8       29.80S
GREENWOOD *+   CLOUDY    70  64  83 W6        29.82S
INDIANAPOLIS   CLOUDY    71  63  75 W5        29.81S
-EAGLE CREEK   CLOUDY    70  64  81 VRB3      29.81S
KOKOMO *+      CLOUDY    70  63  78 E8        29.81S
MT COMFORT *+  CLOUDY    72  59  64 W3        29.82S
SHELBYVILLE    CLOUDY    75  67  76 W8        29.80F

$$

INZ033-034-041-042-049-050-058-059-292000-
EAST CENTRAL INDIANA

CITY           SKY/WX    TMP DP  RH WIND       PRES   REMARKS
MUNCIE         CLOUDY    70  61  73 N3        29.82S

$$

INZ060-061-067>069-081>083-085>088-292000-
SOUTHWEST INDIANA

CITY           SKY/WX    TMP DP  RH WIND       PRES   REMARKS
EVANSVILLE     PTSUNNY   82  66  58 NW9       29.84R
HUNTINGBURG *+ PTSUNNY   79  66  65 W14       29.83S

$$

INZ062-063-066-070>080-084-089>092-292000-
SOUTH CENTRAL AND SOUTHEAST INDIANA

CITY           SKY/WX    TMP DP  RH WIND       PRES   REMARKS
BLOOMINGTON    PTSUNNY   75  67  76 W8        29.81S
MADISON *+     MOSUNNY   79  63  57 W8        29.83S
SEYMOUR +      MOSUNNY   81  66  61 W16       29.80F

$$



USA.gov is the U.S. government's official web portal to all federal, state and local government web resources and services.